Simultaneous Nadir Overpasses (SNOs) Predictions

Prediction of SNOs between GOES-14 and AQUA Satellite Orbit:

Table of predicted SNOs for the next 14.0 days since TLE Epoch: 7/25/2025
Index Date Time (GOES-14) GOES-14 Lat,Lon AQUA Lat,Lon Distance(km) Time Diff (sec)
1 07/26/2025 21:50:22 0.84,-107.94 1.38,-105.53 273.86 80
2 07/27/2025 10:09:29 -0.85,-107.93 -0.39,-110.16 253.25 80
3 07/29/2025 09:49:03 -0.85,-107.91 -1.42,-105.15 313.76 80
4 07/29/2025 22:05:40 0.86,-107.91 0.47,-109.81 216.44 80
5 07/31/2025 21:47:54 0.86,-107.89 1.53,-104.81 351.00 80
6 08/01/2025 10:07:02 -0.87,-107.89 -0.55,-109.43 175.34 80
7 08/03/2025 09:43:56 -0.87,-107.86 -1.64,-104.43 391.47 80
8 08/03/2025 22:03:11 0.88,-107.85 0.59,-109.07 139.21 80
9 08/05/2025 21:45:25 0.88,-107.83 1.71,-104.08 427.72 80
10 08/06/2025 10:04:32 -0.89,-107.83 -0.69,-108.69 97.99 80
11 08/08/2025 09:41:25 -0.89,-107.80 -1.78,-103.68 468.60 80
